CW5834 Weather Reports


time (UTC)temp
F
wind
direction
speed
knots
gust
knots
rain 1hr
in
rain 24hr
in
rain mn
in
humidity
%
barometer
mb
20260904124016 74 0.0 1.7 0.00 0.00 0.00 93 1019.8
20260904123036 73 0.0 0.9 0.00 0.00 0.00 93 1019.8
20260904122016 72 0.0 0.9 0.00 0.00 0.00 95 1019.7
20260904121016 72 315 0.9 1.7 0.00 0.00 0.00 95 1019.5
20260904120016 71 0.0 1.7 0.00 0.00 0.00 96 1019.3
20260904115016 71 0.0 1.7 0.00 0.00 0.00 96 1019.3
20260904114016 70 0 0.9 1.7 0.00 0.00 0.00 95 1019.1
20260904113016 70 0 0.9 1.7 0.00 0.00 0.00 95 1019.2
20260904112016 70 0.0 1.7 0.00 0.00 0.00 95 1019.2
20260904111016 70 0.0 0.0 0.00 0.00 0.00 95 1019.1
20260904110016 70 0.0 0.0 0.00 0.00 0.00 95 1018.9
20260904105016 70 0.0 0.9 0.00 0.00 0.00 95 1018.7
20260904104016 70 0.0 1.7 0.00 0.00 0.00 95 1018.7
20260904103016 70 0.0 0.0 0.00 0.00 0.00 95 1018.9
20260904102016 70 0.0 0.0 0.00 0.00 0.00 95 1018.9
20260904101016 71 0.0 1.7 0.00 0.00 0.00 95 1018.8
20260904100036 71 0.0 0.9 0.00 0.00 0.00 95 1018.8
20260904095016 71 0.0 1.7 0.00 0.00 0.00 95 1018.7
20260904094016 70 0.0 1.7 0.00 0.00 0.00 95 1018.7
20260904093036 70 23 0.9 0.9 0.00 0.00 0.00 95 1018.8
20260904092016 70 0.0 1.7 0.00 0.00 0.00 94 1019.0
20260904091016 71 0.0 1.7 0.00 0.00 0.00 94 1019.0
20260904090016 71 23 0.9 0.9 0.00 0.00 0.00 94 1018.7
20260904085016 71 0.0 1.7 0.00 0.00 0.00 94 1018.5
20260904084035 71 0.0 0.9 0.00 0.00 0.00 94 1018.6
20260904083036 71 338 0.9 0.9 0.00 0.00 0.00 94 1018.3
20260904082015 71 0.0 0.0 0.00 0.00 0.00 94 1018.2
20260904081036 71 0.0 0.9 0.00 0.00 0.00 94 1018.2
20260904080015 71 0.0 0.0 0.00 0.00 0.00 93 1018.2
20260904075015 72 0.0 1.7 0.00 0.00 0.00 93 1018.3
20260904074016 72 0.0 1.7 0.00 0.00 0.00 93 1018.5
20260904073016 72 0.0 1.7 0.00 0.00 0.00 93 1018.6
20260904072016 72 0.0 1.7 0.00 0.00 0.00 93 1018.7
20260904071015 72 0.0 1.7 0.00 0.00 0.00 92 1018.7
20260904070036 72 0.0 0.0 0.00 0.00 0.00 92 1018.7
20260904065015 72 0.0 1.7 0.00 0.00 0.00 92 1018.8
20260904064016 72 0.0 1.7 0.00 0.00 0.00 92 1018.8
20260904063015 72 338 0.9 1.7 0.00 0.00 0.00 93 1018.9
20260904062015 72 0.0 1.7 0.00 0.00 0.00 92 1018.9
20260904061017 72 338 0.9 1.7 0.00 0.00 0.00 92 1019.2
20260904060017 72 0.0 0.0 0.00 0.00 0.00 92 1019.2
20260904055017 73 0.0 0.9 0.00 0.00 0.00 92 1019.2
20260904054017 72 338 0.9 0.9 0.00 0.00 0.00 93 1019.3
20260904053017 72 338 0.9 0.9 0.00 0.00 0.00 92 1019.2
20260904052017 72 0.0 0.9 0.00 0.00 0.00 92 1019.4
20260904051037 73 0.0 1.7 0.00 0.00 0.00 92 1019.6
20260904050017 73 0.0 0.9 0.00 0.00 0.00 91 1019.5
20260904045017 73 0.0 0.0 0.00 0.00 0.00 91 1019.7
20260904044017 73 0.0 0.0 0.00 0.00 0.00 90 1019.7
20260904043017 73 0.0 0.0 0.00 0.00 0.00 90 1019.4
20260904042017 73 338 0.9 1.7 0.00 0.00 0.00 90 1019.4
20260904041017 73 0.0 0.0 0.00 0.00 0.00 90 1019.6
20260904040017 73 0.0 0.0 0.00 0.00 0.00 90 1019.6
20260904035016 74 0.0 0.9 0.00 0.00 0.00 90 1019.6
20260904034016 74 338 0.9 1.7 0.00 0.00 0.00 90 1019.6
20260904033016 74 0.0 0.0 0.00 0.00 0.00 89 1019.6
20260904032016 74 0.0 0.0 0.00 0.00 0.00 89 1019.5
20260904031016 74 0.0 1.7 0.00 0.00 0.00 89 1019.7
20260904030036 74 0.0 0.0 0.00 0.00 0.00 88 1019.5
20260904025016 75 0.0 0.9 0.00 0.00 0.00 88 1019.7
20260904024016 75 0.0 1.7 0.00 0.00 0.00 88 1019.6
20260904023016 75 0.0 0.9 0.00 0.00 0.00 88 1019.5
20260904022016 75 0.0 1.7 0.00 0.00 0.00 87 1019.4
20260904021036 75 0.0 0.0 0.00 0.00 0.00 87 1019.4
20260904020016 75 0.0 1.7 0.00 0.00 0.00 87 1019.2
20260904015016 76 0.0 0.9 0.00 0.00 0.00 87 1019.1
20260904014036 76 0.0 0.0 0.00 0.00 0.00 87 1019.1
20260904013016 76 0.0 1.7 0.00 0.00 0.00 86 1018.6
20260904012015 77 0.0 0.0 0.00 0.00 0.00 86 1018.4
20260904011016 77 0.0 0.0 0.00 0.00 0.00 85 1018.4
20260904010035 77 0.0 0.9 0.00 0.00 0.00 85 1018.3
20260904005036 78 0.0 0.0 0.00 0.00 0.00 83 1018.1
20260904004016 78 0.0 1.7 0.00 0.00 0.00 82 1018.0
20260904003016 79 0.0 0.0 0.00 0.00 0.00 81 1017.7
20260904002016 79 0.0 1.7 0.00 0.00 0.00 80 1017.8
20260904001035 80 0.0 1.7 0.00 0.00 0.00 78 1017.6
20260904000015 81 0.0 0.9 0.00 0.00 0.00 77 1017.6
20260903235015 82 0.0 1.7 0.00 0.00 0.00 75 1017.4
20260903234016 83 0.0 1.7 0.00 0.00 0.00 75 1017.4
20260903233015 85 0.0 0.9 0.00 0.00 0.00 74 1017.5
20260903232015 86 338 0.9 0.9 0.00 0.00 0.00 73 1017.4
20260903231016 87 338 0.9 0.9 0.00 0.00 0.00 70 1017.5
20260903230017 89 338 0.9 0.9 0.00 0.00 0.00 69 1017.6
20260903225035 91 338 0.9 0.9 0.00 0.00 0.00 65 1017.6
20260903224015 91 338 0.9 0.9 0.00 0.00 0.00 66 1017.7
20260903223015 91 315 0.9 1.7 0.00 0.00 0.00 62 1017.7
20260903222015 92 0 0.9 1.7 0.00 0.00 0.00 63 1017.7
20260903221018 93 315 0.9 1.7 0.00 0.00 0.00 58 1017.7
20260903220017 94 0 0.9 1.7 0.00 0.00 0.00 53 1018.0
20260903215017 94 338 1.7 2.6 0.00 0.00 0.00 52 1017.9
20260903214017 94 338 1.7 2.6 0.00 0.00 0.00 51 1017.9
20260903213017 94 315 1.7 2.6 0.00 0.00 0.00 48 1018.0
20260903212017 94 338 0.9 1.7 0.00 0.00 0.00 50 1018.2
20260903211017 95 0 0.9 2.6 0.00 0.00 0.00 47 1018.4
20260903210037 95 338 0.9 3.5 0.00 0.00 0.00 48 1018.4
20260903205038 95 0.0 1.7 0.00 0.00 0.00 50 1018.6
20260903204017 95 225 1.7 3.5 0.00 0.00 0.00 48 1018.5
20260903203017 94 180 0.9 3.5 0.00 0.00 0.00 46 1018.7
20260903202017 95 0.0 1.7 0.00 0.00 0.00 48 1018.8
20260903201017 94 135 0.9 3.5 0.00 0.00 0.00 48 1018.8
20260903200017 94 158 1.7 4.3 0.00 0.00 0.00 46 1018.9
20260903195017 94 23 0.9 2.6 0.00 0.00 0.00 52 1019.2
20260903194017 94 158 0.9 1.7 0.00 0.00 0.00 49 1019.2
20260903193017 94 180 1.7 4.3 0.00 0.00 0.00 47 1019.3
20260903192024 93 135 1.7 3.5 0.00 0.00 0.00 45 1019.4
20260903191017 94 135 1.7 3.5 0.00 0.00 0.00 49 1019.6
20260903190017 93 270 0.9 3.5 0.00 0.00 0.00 48 1019.5
20260903185017 93 180 1.7 4.3 0.00 0.00 0.00 49 1019.7
20260903184017 92 158 1.7 4.3 0.00 0.00 0.00 53 1019.8
20260903183017 92 203 2.6 5.2 0.00 0.00 0.00 53 1019.9
20260903182017 93 45 0.9 2.6 0.00 0.00 0.00 55 1020.1
20260903181017 92 113 1.7 6.1 0.00 0.00 0.00 56 1020.2
20260903180017 91 225 0.9 1.7 0.00 0.00 0.00 57 1020.3
20260903175017 91 0 1.7 5.2 0.00 0.00 0.00 55 1020.4
20260903174017 91 158 1.7 5.2 0.00 0.00 0.00 55 1020.6
20260903173037 92 180 0.9 3.5 0.00 0.00 0.00 56 1020.8
20260903172037 91 158 1.7 3.5 0.00 0.00 0.00 61 1020.8
20260903171017 90 158 0.9 3.5 0.00 0.00 0.00 61 1020.8
20260903170017 90 180 1.7 3.5 0.00 0.00 0.00 62 1020.9
20260903165016 90 135 1.7 3.5 0.00 0.00 0.00 62 1021.0
20260903164016 90 180 1.7 5.2 0.00 0.00 0.00 64 1021.1
20260903163017 90 315 0.9 2.6 0.00 0.00 0.00 62 1021.2
20260903162017 89 0 0.9 2.6 0.00 0.00 0.00 63 1021.1
20260903161017 89 113 0.9 3.5 0.00 0.00 0.00 62 1021.1
20260903160017 89 23 0.9 3.5 0.00 0.00 0.00 64 1021.3
20260903155016 88 135 1.7 3.5 0.00 0.00 0.00 66 1021.2
20260903154017 88 90 0.9 3.5 0.00 0.00 0.00 68 1021.3
20260903153016 87 113 0.9 1.7 0.00 0.00 0.00 67 1021.5
20260903152017 86 135 0.9 2.6 0.00 0.00 0.00 68 1021.4
20260903151017 86 203 1.7 3.5 0.00 0.00 0.00 71 1021.4
20260903150016 86 90 0.9 2.6 0.00 0.00 0.00 71 1021.4
20260903145017 85 113 0.9 2.6 0.00 0.00 0.00 70 1021.3
20260903144016 84 158 0.9 3.5 0.00 0.00 0.00 73 1021.2
20260903143016 84 158 1.7 3.5 0.00 0.00 0.00 73 1021.2
20260903142016 83 158 1.7 3.5 0.00 0.00 0.00 77 1021.3
20260903141016 82 90 0.9 2.6 0.00 0.00 0.00 77 1020.9
20260903140037 82 135 1.7 3.5 0.00 0.00 0.00 80 1021.0
20260903135016 81 135 0.9 2.6 0.00 0.00 0.00 81 1020.9
20260903134016 80 90 0.9 1.7 0.00 0.00 0.00 83 1020.9
20260903133016 80 113 0.9 2.6 0.00 0.00 0.00 82 1021.0
20260903132016 79 68 0.9 1.7 0.00 0.00 0.00 86 1021.1
20260903131016 77 113 0.9 1.7 0.00 0.00 0.00 88 1021.1
20260903130017 76 0.0 1.7 0.00 0.00 0.00 92 1021.1
20260903125016 74 90 0.9 2.6 0.00 0.00 0.00 93 1021.0